(308607) 2005 WY3 (2008)

Japanese version
Home page
Updated on January 23, 2012

---------------------------------------------------------------------

* Profile

Designation (308607) 2005 WY3
Discovery Date November 21, 2005
Magnitude 21.8 mag
Discoverer M. Block, J. V. Scotti (Spacewatch)

* Pictures

* Orbital Elements

The following orbital elements are taken from MPEC 2008-G65:

Epoch 2008 May 14.0 TT = JDT 2454600.5                  MPC
M   6.27251              (2000.0)            P               Q
n   0.05639767     Peri.  309.22450     -0.74219335     -0.66448301
a   6.7343440      Node   190.23358     +0.65754577     -0.74716223
e   0.7352014      Incl.   29.41051     -0.12954761     +0.01452365
P  17.5            H   13.4           G   0.15           U   1
From 277 observations at 3 oppositions, 2005-2008, mean residual 0".37.

* Finding Charts

* Magnitudes Graph

        H = 13.0  G = 0.15

---------------------------------------------------------------------

The orbital elements are published at the MPC Ephemerides and Orbital Elements.
The charts are made with StellaNavigator Ver.2.0 for Windows (AstroArts / ASCII).
The magnitudes graphs are made with Comet for Windows.

---------------------------------------------------------------------

Copyright(C) Seiichi Yoshida (comet@aerith.net). All rights reserved.